Location: Helsinki
(60.1699°N, 24.9384°E)
Time: 21:15:57
(UTC+02:00)

Transit 2A Rocket - Pass Details

Date: 28 September 2023
Orbit: 593 x 903 km, 66.7° (Epoch: 29 November)

Event Time Altitude Azimuth Distance (km) Brightness Sun altitude
Rises 20:09:16 0° 292° (WNW) 3,119 10.2 -9.0°
Reaches altitude 10° 20:11:51 10° 300° (WNW) 2,147 8.7 -9.4°
Maximum altitude 20:16:24 40° 10° (N) 968 5.6 -9.9°
Enters shadow 20:20:20 12° 79° (E) 1,887 6.5 -10.4°
Drops below altitude 10° 20:20:38 10° 81° (E) 1,997 - -10.4°
Sets 20:22:57 0° 89° (E) 2,875 - -10.7°
